Flag for Brazil Weather past 2 weeks in Manaus, Amazonas, Brazil

Now
79 °F

Broken clouds.


Feels Like: 82 °F
Forecast: 75 / 84 °F
Wind: 3 mph from South

Location: Manaus Aeroporto

Current Time: Mar 6, 2015 at 9:32:37 AM

Latest Report: Mar 6, 2015 at 9:00 AM


Visibility: N/A

Pressure: 29.92 "Hg

Humidity: 84%

Dew point: 73 °F

Location of ManausLocation

Historic Weather in Manaus — Graph

°F

Manaus temperature yesterday

Maximum temperature yesterday: 82 °F (at 11:00 AM)
Minimum temperature yesterday: 75 °F (at 5:00 AM)
Average temperature yesterday: 78 °F

Past Weeks' High & Low Weather Summary

 TemperatureHumidityPressure
High91 °F (Feb 20, 1:00 PM)100% (Feb 21, 5:00 PM)30.04 "Hg (Feb 21, 5:00 PM)
Low41 °F (Feb 21, 5:00 PM)52% (Feb 20, 1:00 PM)29.74 "Hg (Feb 19, 3:00 PM)
Average79 °F81%29.85 "Hg
* Reported Feb 19 8:00 AM — Mar 6 8:00 AM, Manaus, Weather by CustomWeather, © 2015

Note: Actual official high and low records may vary slightly from our data, if they occured in-between our weather recording intervals... More about our weather records

Advertising

Manaus weather history for previous 24 hours

 ConditionsComfort  
Time TempWeatherWind HumidityBarometerVisibility
8:00 AM
Fri, Mar 6
77 °FBroken clouds.2 mph89%29.92 "HgN/A
7:00 AM77 °FBroken clouds.2 mph89%29.89 "HgN/A
6:00 AM75 °FPassing clouds.2 mph94%29.86 "HgN/A
5:00 AM75 °FClear.3 mph89%29.86 "Hg10 mi
4:00 AM75 °FClear.2 mph89%29.83 "Hg10 mi
3:00 AM75 °FClear.2 mph89%29.83 "Hg10 mi
2:00 AM75 °FClear.2 mph94%29.86 "Hg10 mi
1:00 AM75 °FClear.2 mph94%29.86 "Hg10 mi
12:00 AM75 °FClear.No wind89%29.89 "Hg10 mi
11:00 PM
Thu, Mar 5
77 °FClear.2 mph83%29.92 "Hg10 mi
10:00 PM77 °FClear.3 mph89%29.89 "Hg10 mi
9:00 PM77 °FPassing clouds.2 mph89%29.86 "HgN/A
8:00 PM77 °FPassing clouds.2 mph89%29.83 "HgN/A
7:00 PM77 °FPassing clouds.3 mph89%29.80 "HgN/A
6:00 PM79 °FScattered clouds.5 mph84%29.77 "HgN/A
5:00 PM79 °FScattered showers. Broken clouds.5 mph84%N/AN/A
4:00 PM79 °FBroken clouds.3 mph84%29.74 "HgN/A
3:00 PM79 °FBroken clouds.3 mph89%29.77 "HgN/A
2:00 PM77 °FPartly sunny.3 mph94%29.83 "Hg5 mi
1:00 PM77 °FLight rain. Partly sunny.6 mph89%29.86 "Hg1 mi
12:00 PM81 °FLight rain. Partly sunny.9 mph79%29.89 "Hg2 mi
11:00 AM82 °FBroken clouds.6 mph74%29.89 "HgN/A
Weather by CustomWeather, © 2015

See weather overviewHow to use our weather pages